[[{"header":{"parameterUnit":"m.s-1","parameterCategory":1,"la1":30.2991,"la2":30.254,"lo1":-89.0895,"lo2":-89.0444,"dy":0.0017,"dx":0.0017,"nx":28,"ny":28,"refTime":"2025-03-04T09:00:00:Z","depth":0,"parameterNumber":2,"parameterNumberName":"U-component_of_WINDS"},"data":[0,0,0,0,0,0,0,0,0,0,0,0,0,0,0,0,0,0,0,0,0,0,0,0,0,0,0,0,0,0,0,0,0,0,0,0,0,0,0,0,0,0,0,0,0,0,0,0,0,0,0,0,0,0,0,0,0,0,6.0674,6.0676,0,6.0844,6.0846,6.0848,6.0794,6.0791,6.0787,6.0783,6.096,6.0968,6.0976,0,0,0,0,0,0,0,0,0,0,0,0,0,6.0306,6.0313,6.0674,6.0676,6.0678,6.0844,6.0846,6.0849,6.0795,6.079,6.0786,6.0782,6.0957,6.0967,6.0976,0,0,0,0,0,0,0,0,0,0,0,0,0,6.047,6.0315,6.0673,6.0671,6.0673,6.0843,6.0846,6.0849,6.0796,6.079,6.0785,6.078,6.0954,6.0966,6.0978,6.1162,0,0,6.1015,6.102,0,0,0,0,0,0,0,0,6.046,6.0483,6.0669,6.0672,6.0674,6.0792,6.0781,6.0954,6.0797,6.0749,6.0783,6.0777,6.0909,6.0924,6.0968,6.117,6.1177,6.1016,6.1023,6.1028,6.1032,0,0,0,0,0,0,0,6.0449,6.0476,6.0741,6.0672,6.0675,6.0663,6.068,6.0814,6.0857,6.0753,6.0749,6.077,6.0909,6.0957,6.0972,6.118,6.1016,6.1026,6.1034,6.1039,6.1545,6.1551,0,0,0,0,0,0,6.0436,6.0467,6.0736,6.0746,6.0551,6.0674,6.0693,6.076,6.0856,6.0865,6.0775,6.0767,6.0939,6.0958,6.0978,6.1202,6.1028,6.104,6.1047,6.1539,6.1546,6.1553,0,0,0,0,0,0,6.0428,6.0461,6.0729,6.0606,6.0639,6.0686,6.0761,6.0766,6.0814,6.0872,6.088,6.0815,6.0935,6.0961,6.1117,6.1207,6.1045,6.1056,6.1532,6.1541,6.155,6.165,0,0,0,0,0,0,6.0418,6.0458,6.0527,6.0608,6.0646,6.0864,6.0767,6.0773,6.0835,6.0826,6.0912,6.0921,6.0933,6.1099,6.1129,6.1221,6.1066,6.1524,6.1536,6.1547,6.1639,6.1662,6.1681,0,0,0,0,0,6.0405,6.0548,6.0531,6.0564,6.0733,6.087,6.0891,6.0901,6.0842,6.0913,6.0951,6.0919,6.1192,6.1116,6.1149,6.1246,6.1518,6.1532,6.1546,6.163,6.1657,6.1681,0,0,0,0,0,0,6.0478,6.0559,6.054,6.0714,6.0785,6.086,6.095,6.0929,6.1019,6.1008,6.1016,6.1037,6.1198,6.1237,6.115,6.1431,6.1347,6.1368,6.1399,6.1426,6.1446,6.1434,6.1076,0,0,0,0,0,6.0514,6.0617,6.0682,6.0829,6.0866,6.0902,6.0962,6.0963,6.1038,6.1068,6.1117,6.1191,6.1294,6.1362,6.146,6.1644,6.1664,6.1728,6.1749,6.1766,6.1784,6.1888,6.1918,6.1599,6.1599,6.1598,0,0,6.0589,6.0647,6.0711,6.0846,6.0901,6.1009,6.0928,6.1045,6.1126,6.1086,6.1237,6.1276,6.136,6.1532,6.161,6.157,6.1877,6.1783,6.1796,6.1806,6.1905,6.1936,6.1962,6.1608,6.1607,6.1605,0,0,6.0783,6.0836,6.0965,6.1023,6.1108,6.1132,6.1163,6.1242,6.1267,6.1418,6.1391,6.1488,6.1664,6.1726,6.1781,6.2001,6.1976,6.2033,6.2143,6.2244,6.227,6.2292,6.2373,6.2402,6.2051,6.2051,6.2052,0,6.0867,6.1028,6.1034,6.1155,6.1216,6.1185,6.1318,6.1374,6.1487,6.153,6.1483,6.1706,6.176,6.1948,6.2002,6.2046,6.2084,6.2023,6.2265,6.2288,6.2309,6.2386,6.2417,6.2058,6.2057,6.2056,6.2056,0,6.1128,6.124,6.1335,6.1446,6.1517,6.1643,6.1671,6.1743,6.1739,6.1768,6.1924,6.1988,6.21,6.2144,6.2141,6.2333,6.2305,6.2262,6.2178,6.2346,6.2419,6.2448,6.2067,6.2065,6.2063,6.2061,0,0,6.1371,6.1486,6.152,6.1572,6.1665,6.1752,6.1878,6.1987,6.205,6.213,6.2237,6.2388,6.235,6.2412,6.2415,6.2504,6.2678,6.245,6.2452,6.2492,6.2897,6.293,6.2964,6.2662,6.2667,6.2672,6.2891,0,6.1575,6.1795,6.1806,6.2007,6.2113,6.2086,6.2196,6.2266,6.2297,6.2392,6.2426,6.2535,6.2474,6.2512,6.2598,6.2639,6.276,6.2623,6.2764,6.2769,6.2745,6.3002,6.3037,6.324,6.2919,6.2924,6.2927,0,6.1841,6.1929,6.2141,6.2222,6.2267,6.2365,6.2468,6.2558,6.2638,6.2655,6.2726,6.2718,6.2849,6.276,6.2942,6.2849,6.2907,6.2936,6.2945,6.2959,6.2859,6.3026,6.3305,6.3337,6.2972,6.2968,6.2965,0,6.2,6.2172,6.2322,6.2366,6.2463,6.2534,6.2578,6.2652,6.2718,6.2808,6.2852,6.2956,6.3014,6.3095,6.3117,6.3049,6.33,6.3212,6.3319,6.3319,6.3374,6.337,6.3669,6.3409,6.3408,6.3408,6.3407,0,6.2227,6.2358,6.2395,6.2488,6.2635,6.2647,6.2793,6.2832,6.2899,6.3,6.2983,6.3079,6.31,6.32,6.3218,6.3368,6.3393,6.3412,6.3415,6.3415,6.3413,6.3454,6.3441,6.3416,6.3414,6.3412,6.3411,0,6.243,6.2459,6.2621,6.2701,6.2724,6.2829,6.2898,6.2988,6.3017,6.3146,6.3177,6.3224,6.3341,6.337,6.351,6.3522,6.37,6.3689,6.3673,6.3673,6.378,6.377,6.4116,6.4163,6.3871,6.3874,6.3876,0,6.2573,6.2673,6.2764,6.2831,6.2878,6.2985,6.3052,6.3069,6.3141,6.3241,6.332,6.3435,6.3528,6.3718,6.3765,6.3873,6.3866,6.398,6.3882,6.3879,6.387,6.3865,6.3876,6.3999,6.4002,6.4004,6.4006,0,6.2825,6.2836,6.2933,6.3038,6.3119,6.3202,6.3281,6.3337,6.3365,6.3447,6.3567,6.3639,6.3783,6.3899,6.4008,6.4055,6.4037,6.4037,6.4068,6.4069,6.4056,6.4067,6.3726,6.4029,6.4027,6.4025,6.4024,6.4023,6.3004,6.3094,6.3172,6.3283,6.3344,6.3419,6.3508,6.355,6.365,6.3768,6.3772,6.3904,6.3984,6.4129,6.4182,6.4287,6.4252,6.4296,6.4308,6.4319,6.433,6.4039,6.4306,6.4306,6.4305,6.4305,6.4304,0,6.3258,6.3307,6.3409,6.3521,6.3608,6.3583,6.367,6.3746,6.3861,6.3937,6.403,6.417,6.4283,6.434,6.4453,6.4526,6.4521,6.4555,6.4551,6.4562,6.4353,6.4316,6.4558,6.4557,6.4557,6.4557,6.4557,6.4557,6.34,6.355,6.3571,6.3753,6.3802,6.393,6.3983,6.4053,6.4114,6.4271,6.4364,6.4401,6.4471,6.4589,6.4692,6.4706,6.475,6.4789,6.4799,6.4602,6.4577,6.4552,6.4517,6.4798,6.4798,6.5,6.5002,6.5004]},{"header":{"parameterUnit":"m.s-1","parameterCategory":1,"la1":30.2991,"la2":30.254,"lo1":-89.0895,"lo2":-89.0444,"dy":0.0017,"dx":0.0017,"nx":28,"ny":28,"refTime":"2025-03-04T09:00:00:Z","depth":0,"parameterNumber":3,"parameterNumberName":"V-component_of_WINDS"},"data":[0,0,0,0,0,0,0,0,0,0,0,0,0,0,0,0,0,0,0,0,0,0,0,0,0,0,0,0,0,0,0,0,0,0,0,0,0,0,0,0,0,0,0,0,0,0,0,0,0,0,0,0,0,0,0,0,0,0,-5.5104,-5.5107,0,-5.531,-5.5312,-5.5314,-5.5315,-5.5313,-5.531,-5.5308,-5.5519,-5.5527,-5.5535,0,0,0,0,0,0,0,0,0,0,0,0,0,-5.4715,-5.4722,-5.5104,-5.5107,-5.5109,-5.5309,-5.5312,-5.5315,-5.5316,-5.5313,-5.5309,-5.5306,-5.5516,-5.5526,-5.5536,0,0,0,0,0,0,0,0,0,0,0,0,0,-5.4899,-5.4725,-5.5104,-5.5134,-5.5139,-5.5309,-5.5312,-5.5316,-5.5317,-5.5313,-5.5309,-5.5305,-5.5513,-5.5525,-5.5537,-5.5691,0,0,-5.5574,-5.5579,0,0,0,0,0,0,0,0,-5.4888,-5.4913,-5.5127,-5.5132,-5.5138,-5.5283,-5.5252,-5.5442,-5.5318,-5.5249,-5.5308,-5.5303,-5.5444,-5.5461,-5.5509,-5.5701,-5.571,-5.5575,-5.5582,-5.5588,-5.5591,0,0,0,0,0,0,0,-5.4876,-5.4904,-5.5186,-5.513,-5.5137,-5.5138,-5.516,-5.5288,-5.5366,-5.5255,-5.5255,-5.528,-5.5446,-5.5497,-5.5513,-5.5713,-5.5575,-5.5585,-5.5593,-5.5598,-5.6045,-5.6049,0,0,0,0,0,0,-5.4857,-5.4894,-5.5179,-5.5192,-5.5001,-5.5148,-5.5172,-5.524,-5.5365,-5.538,-5.5283,-5.5279,-5.5478,-5.5499,-5.5521,-5.5711,-5.5587,-5.5599,-5.5606,-5.604,-5.6046,-5.6051,0,0,0,0,0,0,-5.4848,-5.4882,-5.5171,-5.5043,-5.508,-5.5159,-5.5235,-5.5246,-5.5297,-5.5386,-5.54,-5.532,-5.5476,-5.5504,-5.5649,-5.5719,-5.5604,-5.5615,-5.6035,-5.6042,-5.6048,-5.6092,0,0,0,0,0,0,-5.4837,-5.4879,-5.4938,-5.5044,-5.5087,-5.5295,-5.524,-5.5253,-5.5318,-5.5315,-5.5425,-5.5439,-5.5475,-5.5631,-5.5661,-5.5733,-5.5625,-5.6029,-5.6038,-5.6046,-5.6085,-5.6099,-5.6112,0,0,0,0,0,-5.4823,-5.4941,-5.4941,-5.4975,-5.5162,-5.5299,-5.5323,-5.5361,-5.5324,-5.5384,-5.5441,-5.5436,-5.5706,-5.5646,-5.568,-5.5756,-5.6025,-5.6035,-5.6045,-5.6078,-5.6097,-5.6112,0,0,0,0,0,0,-5.4841,-5.4956,-5.4956,-5.5112,-5.5196,-5.5299,-5.5376,-5.5379,-5.5475,-5.5468,-5.5512,-5.5537,-5.5682,-5.5734,-5.5665,-5.5913,-5.5861,-5.5878,-5.5874,-5.5892,-5.5906,-5.5891,-5.5635,0,0,0,0,0,-5.4863,-5.4964,-5.5059,-5.5188,-5.523,-5.5296,-5.5357,-5.538,-5.5468,-5.5503,-5.5571,-5.5657,-5.5762,-5.583,-5.5931,-5.6092,-5.6117,-5.6162,-5.6175,-5.6186,-5.6201,-5.6292,-5.6314,-5.6085,-5.6085,-5.6084,0,0,-5.4909,-5.4985,-5.5046,-5.5194,-5.5261,-5.5366,-5.5326,-5.5438,-5.5517,-5.552,-5.5662,-5.5715,-5.5814,-5.5969,-5.604,-5.6017,-5.627,-5.6199,-5.6207,-5.6217,-5.6305,-5.6327,-5.6346,-5.6092,-5.609,-5.6089,0,0,-5.5048,-5.5115,-5.523,-5.5299,-5.5402,-5.5445,-5.5473,-5.5576,-5.5611,-5.5754,-5.576,-5.5855,-5.6033,-5.6104,-5.6164,-5.6332,-5.6332,-5.6364,-5.6436,-5.6524,-5.6542,-5.6559,-5.662,-5.6642,-5.6378,-5.6378,-5.6379,0,-5.5094,-5.5251,-5.5289,-5.5403,-5.5469,-5.5477,-5.5595,-5.566,-5.579,-5.5836,-5.5807,-5.6033,-5.6101,-5.6273,-5.6314,-5.6362,-5.6396,-5.6352,-5.6537,-5.6553,-5.6569,-5.6628,-5.6651,-5.6382,-5.6381,-5.6381,-5.6381,0,-5.5303,-5.5412,-5.5493,-5.562,-5.5694,-5.5809,-5.5866,-5.5937,-5.5954,-5.6,-5.6147,-5.6228,-5.6347,-5.6389,-5.6406,-5.6565,-5.6547,-5.6527,-5.6475,-5.6594,-5.665,-5.6673,-5.6387,-5.6385,-5.6384,-5.6384,0,0,-5.5458,-5.5605,-5.5634,-5.5692,-5.5807,-5.5893,-5.6009,-5.6125,-5.6186,-5.6276,-5.6376,-5.6528,-5.6511,-5.6579,-5.6604,-5.6681,-5.6811,-5.6652,-5.6655,-5.668,-5.6994,-5.7009,-5.7034,-5.6811,-5.6816,-5.6819,-5.6986,0,-5.561,-5.5816,-5.5855,-5.6035,-5.6138,-5.6148,-5.625,-5.6332,-5.6379,-5.6474,-5.6526,-5.6634,-5.6602,-5.6643,-5.6721,-5.6779,-5.6875,-5.6768,-5.6906,-5.691,-5.6882,-5.7064,-5.708,-5.7233,-5.7008,-5.7012,-5.7015,0,-5.5815,-5.5911,-5.6101,-5.6204,-5.6249,-5.6339,-5.645,-5.654,-5.6634,-5.6663,-5.6739,-5.6756,-5.6879,-5.6821,-5.6992,-5.6918,-5.6977,-5.7014,-5.7021,-5.7036,-5.697,-5.7085,-5.7282,-5.7306,-5.7049,-5.7047,-5.7044,0,-5.5911,-5.6087,-5.6225,-5.6274,-5.6397,-5.6461,-5.6515,-5.6605,-5.6673,-5.677,-5.6815,-5.6924,-5.6985,-5.707,-5.7117,-5.707,-5.7285,-5.723,-5.7314,-5.7313,-5.7359,-5.7355,-5.757,-5.7395,-5.7395,-5.7394,-5.7394,0,-5.6077,-5.6194,-5.627,-5.6354,-5.6486,-5.653,-5.6659,-5.6712,-5.6793,-5.6889,-5.6904,-5.6994,-5.705,-5.7149,-5.7186,-5.7323,-5.7349,-5.7377,-5.7386,-5.7377,-5.7373,-5.7417,-5.7408,-5.74,-5.7399,-5.7398,-5.7397,0,-5.6207,-5.6262,-5.6413,-5.6517,-5.6546,-5.6639,-5.6729,-5.6812,-5.6859,-5.6981,-5.7012,-5.7087,-5.7204,-5.7259,-5.7403,-5.7429,-5.7585,-5.7585,-5.7553,-5.7556,-5.7637,-5.7629,-5.7888,-5.7924,-5.7724,-5.7726,-5.7727,0,-5.631,-5.64,-5.6514,-5.658,-5.6636,-5.6741,-5.6811,-5.6858,-5.693,-5.7045,-5.7115,-5.7232,-5.7329,-5.7516,-5.7583,-5.7695,-5.7699,-5.7782,-5.7716,-5.7705,-5.7703,-5.7697,-5.7707,-5.7794,-5.7796,-5.7798,-5.7799,0,-5.6487,-5.6511,-5.661,-5.6721,-5.6804,-5.6892,-5.698,-5.7033,-5.7094,-5.7175,-5.7295,-5.737,-5.7518,-5.7635,-5.7752,-5.7808,-5.7815,-5.7819,-5.7845,-5.7837,-5.7815,-5.7829,-5.7587,-5.7813,-5.7812,-5.7811,-5.781,-5.781,-5.6608,-5.6689,-5.6783,-5.6894,-5.6965,-5.7047,-5.7131,-5.7189,-5.729,-5.7414,-5.7436,-5.7564,-5.7658,-5.7815,-5.7876,-5.7978,-5.7958,-5.7995,-5.8004,-5.8013,-5.8018,-5.7798,-5.7999,-5.7998,-5.7998,-5.7998,-5.7998,0,-5.6788,-5.6849,-5.6951,-5.7073,-5.7161,-5.7159,-5.7256,-5.733,-5.7442,-5.7529,-5.7624,-5.7763,-5.7877,-5.7955,-5.8071,-5.8138,-5.8144,-5.8167,-5.8163,-5.8176,-5.8028,-5.7995,-5.816,-5.816,-5.816,-5.816,-5.816,-5.816,-5.6892,-5.703,-5.7064,-5.7238,-5.7299,-5.7424,-5.748,-5.7557,-5.7626,-5.7781,-5.7876,-5.7925,-5.8009,-5.8132,-5.8237,-5.8257,-5.83,-5.8324,-5.8343,-5.8203,-5.8186,-5.817,-5.814,-5.8332,-5.8333,-5.8484,-5.8485,-5.8486]}]]